TimeCDT,TemperatureF,Dew PointF,Humidity,Sea Level PressureIn,VisibilityMPH,Wind Direction,Wind SpeedMPH,Gust SpeedMPH,PrecipitationIn,Events,Conditions,WindDirDegrees,DateUTC
12:13 AM,71.8,65.3,80,29.82,10.0,SSE,10.4,-,N/A,,Clear,150,2013-07-22 05:13:00
12:33 AM,71.6,65.3,80,29.82,10.0,SSE,8.1,-,N/A,,Clear,160,2013-07-22 05:33:00
12:53 AM,71.2,65.3,81,29.82,10.0,SSE,8.1,-,N/A,,Clear,160,2013-07-22 05:53:00
1:13 AM,70.9,65.1,82,29.81,10.0,SSE,9.2,-,N/A,,Clear,160,2013-07-22 06:13:00
1:33 AM,70.3,64.9,83,29.81,10.0,SSE,5.8,-,N/A,,Clear,150,2013-07-22 06:33:00
1:53 AM,70.0,64.6,83,29.80,10.0,SSE,6.9,-,N/A,,Clear,150,2013-07-22 06:53:00
2:13 AM,69.8,64.4,83,29.78,10.0,SSE,6.9,-,N/A,,Clear,150,2013-07-22 07:13:00
2:33 AM,69.4,64.4,84,29.79,10.0,SSE,5.8,-,N/A,,Clear,160,2013-07-22 07:33:00
2:53 AM,69.3,63.7,82,29.78,10.0,SSE,6.9,-,N/A,,Clear,160,2013-07-22 07:53:00
3:13 AM,69.1,63.5,82,29.78,10.0,SSE,4.6,-,N/A,,Clear,160,2013-07-22 08:13:00
3:33 AM,68.9,63.0,81,29.77,10.0,SSE,6.9,-,N/A,,Clear,160,2013-07-22 08:33:00
3:53 AM,68.5,63.0,82,29.77,10.0,SSE,3.5,-,N/A,,Clear,160,2013-07-22 08:53:00
4:13 AM,68.4,63.1,83,29.75,10.0,South,6.9,-,N/A,,Clear,170,2013-07-22 09:13:00
4:33 AM,68.4,63.1,83,29.76,10.0,Calm,Calm,-,N/A,,Clear,0,2013-07-22 09:33:00
4:53 AM,68.2,63.1,84,29.77,10.0,Calm,Calm,-,N/A,,Clear,0,2013-07-22 09:53:00
5:13 AM,68.0,63.5,85,29.78,10.0,South,4.6,-,N/A,,Clear,190,2013-07-22 10:13:00
5:33 AM,68.2,63.5,85,29.77,10.0,SSE,3.5,-,N/A,,Clear,150,2013-07-22 10:33:00
5:53 AM,68.0,63.5,85,29.77,10.0,Calm,Calm,-,N/A,,Clear,0,2013-07-22 10:53:00
6:13 AM,67.6,63.5,87,29.76,10.0,South,3.5,-,N/A,,Clear,170,2013-07-22 11:13:00
6:33 AM,68.0,63.9,87,29.76,10.0,SE,3.5,-,N/A,,Clear,140,2013-07-22 11:33:00
6:53 AM,68.4,63.9,85,29.77,10.0,South,5.8,-,N/A,,Scattered Clouds,180,2013-07-22 11:53:00
7:13 AM,68.9,64.2,85,29.75,10.0,Calm,Calm,-,N/A,,Scattered Clouds,0,2013-07-22 12:13:00
7:33 AM,69.1,64.4,85,29.75,10.0,SSE,3.5,-,N/A,,Clear,160,2013-07-22 12:33:00
7:53 AM,70.0,64.4,82,29.74,10.0,South,6.9,-,N/A,,Scattered Clouds,170,2013-07-22 12:53:00
8:13 AM,70.3,64.8,82,29.74,10.0,SE,5.8,16.1,N/A,,Scattered Clouds,140,2013-07-22 13:13:00
8:33 AM,71.1,65.3,82,29.73,10.0,SSE,6.9,-,N/A,,Scattered Clouds,160,2013-07-22 13:33:00
8:53 AM,72.3,66.2,81,29.72,10.0,South,8.1,-,N/A,,Clear,170,2013-07-22 13:53:00
9:13 AM,73.0,66.9,81,29.71,10.0,SSE,10.4,-,N/A,,Clear,160,2013-07-22 14:13:00
9:33 AM,74.3,67.8,80,29.71,10.0,South,6.9,-,N/A,,Clear,180,2013-07-22 14:33:00
9:53 AM,75.4,68.2,78,29.71,10.0,South,8.1,-,N/A,,Clear,170,2013-07-22 14:53:00
10:13 AM,77.9,69.6,76,29.70,10.0,South,9.2,17.3,N/A,,Clear,190,2013-07-22 15:13:00
10:33 AM,79.2,69.6,72,29.70,10.0,South,11.5,-,N/A,,Clear,190,2013-07-22 15:33:00
10:53 AM,80.8,70.3,70,29.69,10.0,SSW,8.1,18.4,N/A,,Clear,210,2013-07-22 15:53:00
11:13 AM,82.2,70.7,68,29.69,10.0,SSW,10.4,16.1,N/A,,Scattered Clouds,210,2013-07-22 16:13:00
11:33 AM,82.6,70.9,68,29.69,10.0,SW,11.5,-,N/A,,Scattered Clouds,220,2013-07-22 16:33:00
11:53 AM,84.2,71.6,66,29.69,10.0,SSW,6.9,-,N/A,,Scattered Clouds,210,2013-07-22 16:53:00
12:13 PM,85.3,71.2,63,29.68,10.0,SW,9.2,-,N/A,,Clear,220,2013-07-22 17:13:00
12:33 PM,86.0,68.9,56,29.68,10.0,WSW,10.4,-,N/A,,Scattered Clouds,250,2013-07-22 17:33:00
12:53 PM,86.2,67.3,53,29.68,10.0,WSW,11.5,17.3,N/A,,Scattered Clouds,250,2013-07-22 17:53:00
1:13 PM,86.0,67.1,53,29.69,10.0,West,11.5,17.3,N/A,,Scattered Clouds,280,2013-07-22 18:13:00
1:33 PM,85.5,67.3,54,29.69,10.0,WNW,15.0,-,N/A,,Scattered Clouds,290,2013-07-22 18:33:00
1:53 PM,84.7,67.6,56,29.69,10.0,West,10.4,-,N/A,,Mostly Cloudy,270,2013-07-22 18:53:00
2:13 PM,84.7,67.5,56,29.69,10.0,West,8.1,-,N/A,,Mostly Cloudy,270,2013-07-22 19:13:00
2:33 PM,85.8,67.6,54,29.69,10.0,West,9.2,-,N/A,,Scattered Clouds,280,2013-07-22 19:33:00
2:53 PM,86.0,68.5,56,29.69,10.0,West,6.9,-,N/A,,Clear,270,2013-07-22 19:53:00
3:13 PM,86.5,68.2,54,29.69,10.0,WSW,8.1,-,N/A,,Clear,250,2013-07-22 20:13:00
3:33 PM,88.3,68.5,52,29.68,10.0,West,10.4,-,N/A,,Scattered Clouds,260,2013-07-22 20:33:00
3:53 PM,86.9,66.4,50,29.68,10.0,West,11.5,17.3,N/A,,Scattered Clouds,280,2013-07-22 20:53:00
4:13 PM,88.3,67.5,50,29.67,10.0,WNW,9.2,-,N/A,,Clear,290,2013-07-22 21:13:00
4:33 PM,88.0,63.1,43,29.67,10.0,NW,15.0,23.0,N/A,,Scattered Clouds,310,2013-07-22 21:33:00
4:53 PM,88.5,59.4,37,29.67,10.0,WNW,17.3,-,N/A,,Clear,300,2013-07-22 21:53:00
5:13 PM,87.8,59.4,38,29.68,10.0,WNW,13.8,18.4,N/A,,Clear,300,2013-07-22 22:13:00
5:33 PM,87.3,59.9,40,29.69,10.0,WNW,13.8,-,N/A,,Clear,290,2013-07-22 22:33:00
5:53 PM,85.8,60.6,43,29.69,10.0,NW,13.8,18.4,N/A,,Clear,320,2013-07-22 22:53:00
6:13 PM,85.6,60.1,42,29.69,10.0,NW,12.7,20.7,N/A,,Scattered Clouds,320,2013-07-22 23:13:00
6:33 PM,84.9,59.2,42,29.70,10.0,NNW,12.7,23.0,N/A,,Scattered Clouds,340,2013-07-22 23:33:00
6:53 PM,83.5,59.2,44,29.71,10.0,NNW,18.4,25.3,N/A,,Scattered Clouds,330,2013-07-22 23:53:00
7:13 PM,82.8,57.6,42,29.73,10.0,NNW,16.1,21.9,N/A,,Clear,340,2013-07-23 00:13:00
7:33 PM,81.9,57.0,43,29.74,10.0,NW,12.7,17.3,N/A,,Clear,320,2013-07-23 00:33:00
7:53 PM,81.0,57.7,45,29.75,10.0,North,11.5,19.6,N/A,,Clear,350,2013-07-23 00:53:00
8:13 PM,79.7,57.4,46,29.75,10.0,NNW,13.8,17.3,N/A,,Clear,340,2013-07-23 01:13:00
8:33 PM,79.2,57.6,47,29.76,10.0,NNW,15.0,21.9,N/A,,Clear,340,2013-07-23 01:33:00
8:53 PM,77.9,57.9,50,29.77,10.0,North,12.7,18.4,N/A,,Clear,350,2013-07-23 01:53:00
9:13 PM,76.3,57.4,52,29.78,10.0,North,10.4,19.6,N/A,,Clear,360,2013-07-23 02:13:00
9:33 PM,75.2,57.0,53,29.79,10.0,North,11.5,16.1,N/A,,Clear,360,2013-07-23 02:33:00
9:53 PM,74.7,55.2,51,29.80,10.0,North,10.4,21.9,N/A,,Clear,360,2013-07-23 02:53:00
10:13 PM,73.8,55.4,53,29.81,10.0,North,10.4,16.1,N/A,,Clear,360,2013-07-23 03:13:00
10:33 PM,73.0,55.8,55,29.81,10.0,North,10.4,16.1,N/A,,Clear,10,2013-07-23 03:33:00
10:53 PM,72.5,55.9,56,29.81,10.0,North,8.1,-,N/A,,Clear,350,2013-07-23 03:53:00
11:13 PM,72.0,55.6,56,29.83,10.0,North,8.1,-,N/A,,Clear,360,2013-07-23 04:13:00
11:33 PM,72.1,55.0,55,29.84,10.0,North,9.2,-,N/A,,Mostly Cloudy,360,2013-07-23 04:33:00
11:53 PM,71.1,55.4,58,29.85,10.0,North,8.1,-,N/A,,Scattered Clouds,360,2013-07-23 04:53:00